Theta_e
303 303 303 303 303 303 303 302 302 301 300 299 300 300 301 302 302 303 303 303 303 303 303 303 303 303 304 304 304 304 303 303 302 302 300 300 298 297 296 295 294 294 294 294 294 294 295 295 295 295 295 295 295 295 295 294 294 294 294 294 294 293 293 292 291 290 290 289 289 289 289 289 289 289 289 290 289 289 289 289 290 290 290 290 289
302 302 302 302 303 303 303 303 303 303 302 301 300 299 300 300 301 302 302 303 303 303 303 303 303 303 303 303 303 303 303 303 302 302 301 300 299 298 297 295 294 294 294 294 294 294 294 294 294 295 294 294 294 294 294 294 294 294 294 294 294 293 292 292 291 291 290 289 289 289 289 289 289 288 289 290 290 290 290 290 291 290 290 290 289
300 301 301 302 302 302 302 303 303 304 304 304 303 301 300 299 299 300 301 301 302 302 303 303 302 302 302 302 302 303 303 303 303 302 302 301 300 299 298 296 295 294 294 294 294 294 294 294 294 294 294 294 294 294 294 294 294 294 294 294 294 293 292 291 291 291 290 289 289 289 289 289 289 289 289 290 291 291 291 291 291 290 289 289 289
297 299 300 301 301 301 301 302 302 302 303 304 304 303 302 300 298 298 298 299 300 301 301 301 302 302 302 302 301 301 302 302 303 303 302 301 300 299 298 297 296 295 294 294 294 294 294 294 294 294 294 294 294 294 294 294 294 294 294 294 294 293 292 291 291 290 290 290 289 289 289 290 290 290 290 291 291 291 291 291 290 289 289 289 289
296 296 297 298 299 300 300 301 301 301 302 303 304 304 303 302 300 298 297 297 297 298 299 300 300 301 301 301 301 301 301 301 302 302 302 302 300 299 299 298 297 296 295 294 294 294 294 294 294 294 294 294 294 294 294 294 294 294 294 294 294 293 292 291 290 290 290 290 289 289 289 290 290 290 290 291 291 291 291 290 290 290 289 289 289
294 295 295 295 296 297 298 299 299 299 300 301 301 302 303 303 302 301 299 297 297 297 297 297 298 299 300 300 301 301 301 300 300 301 302 302 301 300 299 298 297 296 295 295 295 294 294 294 294 294 294 294 294 294 294 294 294 293 293 293 293 293 292 292 291 290 289 289 289 289 289 289 290 290 290 290 291 290 290 290 290 290 289 289 288
292 293 294 294 294 295 296 296 297 297 298 299 299 300 301 302 302 302 300 299 299 297 296 296 297 297 298 299 299 300 300 300 300 300 300 300 301 301 300 299 298 297 296 295 295 294 294 293 293 293 293 294 294 294 294 294 294 293 293 293 293 293 292 291 291 290 289 289 289 289 289 289 290 290 290 290 290 289 290 290 289 288 288 287 287
291 291 292 293 293 294 294 294 295 295 296 297 298 298 299 300 301 301 301 300 299 298 297 296 296 296 297 297 298 298 298 299 299 299 299 299 299 300 299 299 298 298 297 296 295 294 293 293 293 293 293 293 294 294 294 294 293 293 293 293 293 292 292 292 291 290 289 289 288 288 288 289 289 289 289 289 289 289 289 288 287 287 286 286 286
290 290 291 291 292 292 293 293 294 294 295 296 296 297 298 298 299 300 301 301 299 298 297 296 295 295 296 296 296 296 297 298 298 298 298 298 299 299 299 298 298 298 298 297 295 294 293 292 292 292 292 293 293 293 293 293 293 293 293 293 293 292 292 292 291 290 289 288 288 288 288 288 289 288 288 288 288 288 288 287 286 285 285 285 285
289 289 289 290 290 291 292 292 293 293 294 294 295 295 296 297 297 298 298 299 299 298 296 296 295 295 295 295 295 295 296 297 297 297 297 297 298 298 299 298 297 297 297 297 296 295 293 292 292 292 292 292 292 293 293 293 293 293 293 292 292 292 292 291 291 290 288 288 288 288 288 288 288 287 287 287 288 287 286 285 285 284 284 284 285
288 288 288 289 289 290 290 291 292 292 293 293 294 294 294 295 296 297 297 297 298 297 296 296 295 295 294 294 294 294 295 296 296 296 296 296 296 297 297 298 298 296 295 295 296 295 294 293 291 291 291 291 292 292 292 292 292 292 291 291 291 291 291 291 290 289 288 288 287 288 288 288 287 287 287 287 287 286 285 284 284 284 284 284 284
287 287 287 288 288 289 289 289 290 291 291 292 293 293 293 294 295 296 296 297 296 296 296 296 294 294 293 293 294 294 294 295 295 295 295 295 295 295 296 297 297 297 296 294 294 294 294 293 292 291 291 291 291 291 291 291 291 291 290 290 290 290 290 290 290 289 288 287 287 288 288 288 287 287 287 287 286 285 284 284 284 284 283 284 284
286 286 286 287 287 287 288 288 289 289 290 290 291 292 293 293 294 294 295 296 296 296 296 295 294 293 293 293 293 293 294 294 294 294 294 294 294 294 295 295 296 297 297 295 293 292 292 292 292 291 290 290 290 291 291 290 290 289 289 289 289 289 289 289 288 288 288 287 287 288 288 287 287 287 287 287 286 285 284 284 284 284 283 283 283
286 286 285 286 286 286 287 287 288 288 289 289 289 290 291 292 293 293 294 295 295 296 295 294 294 293 292 292 292 292 293 293 293 293 293 293 293 293 294 294 295 295 296 296 295 293 292 292 292 291 290 290 290 290 290 290 289 289 289 289 289 288 288 288 288 288 287 287 287 287 287 287 287 287 287 286 285 284 284 284 284 283 283 283 283
286 286 285 285 285 285 285 286 286 287 287 288 288 288 289 290 291 292 293 293 294 295 295 294 293 292 292 291 291 292 292 292 292 292 292 293 293 293 293 293 294 294 295 295 294 294 293 293 292 291 291 290 290 290 290 289 289 289 289 290 289 288 288 288 288 288 287 287 287 287 287 287 287 286 285 285 284 284 284 284 283 283 283 283 283
286 286 286 285 285 285 285 285 285 285 286 286 287 287 287 288 289 291 292 292 293 294 294 294 293 292 292 291 291 291 291 291 291 291 292 292 292 292 292 293 293 293 294 294 293 293 293 293 293 292 291 290 290 289 289 289 289 289 289 289 289 288 288 288 287 287 287 287 287 286 286 287 287 285 284 284 284 284 283 283 282 282 282 282 282
286 286 286 286 285 285 285 285 285 285 285 285 285 286 286 286 287 289 290 291 292 293 293 293 293 292 291 291 290 290 290 290 290 291 291 291 291 291 291 292 292 292 293 293 293 292 292 292 292 291 291 290 289 289 289 288 289 289 289 288 288 288 288 287 286 286 286 286 286 286 287 287 286 285 284 283 283 283 282 281 281 281 281 281 282
285 285 285 285 285 285 285 285 285 285 285 285 285 285 285 285 286 287 288 289 291 292 293 293 293 293 292 291 290 290 290 290 290 290 290 290 290 290 290 291 291 292 292 292 292 291 291 291 291 291 290 289 288 288 288 288 289 289 288 289 289 288 287 286 286 286 285 285 286 286 286 285 285 284 283 282 282 282 281 281 281 281 281 281 281
285 285 285 285 285 285 285 285 285 285 285 285 285 285 285 285 285 285 286 288 289 291 292 293 293 293 292 291 290 289 289 289 289 289 289 289 289 289 289 290 290 290 291 290 290 290 290 290 290 290 289 289 288 287 287 288 288 288 289 289 289 287 286 286 286 286 285 285 285 285 284 284 284 283 282 281 281 281 281 280 281 281 281 281 281
284 284 284 285 285 285 285 284 284 285 285 285 284 285 285 285 285 285 285 286 287 289 290 292 293 293 292 291 290 289 289 288 288 288 288 288 288 289 289 289 289 289 289 289 289 289 289 289 289 289 288 288 287 287 287 287 288 288 289 289 288 287 286 286 286 285 285 285 285 284 284 284 283 282 281 280 280 280 280 280 280 280 280 280 280
284 284 284 284 285 284 284 284 284 284 284 284 284 284 284 284 284 285 285 285 286 287 289 290 292 293 293 292 291 290 289 288 288 288 288 287 288 288 288 288 288 289 288 288 288 288 288 288 288 288 288 287 286 286 286 286 287 289 289 287 286 286 286 286 286 285 285 284 284 284 283 283 282 280 280 279 279 279 280 280 280 280 280 280 279
283 283 284 284 284 285 285 284 284 284 284 284 284 284 284 284 284 284 284 285 285 286 287 289 290 292 293 292 291 291 290 289 288 287 287 287 287 287 287 288 288 288 288 288 288 288 288 288 288 288 287 287 286 285 285 286 287 287 286 285 285 285 285 285 285 284 284 283 283 283 282 282 281 280 279 279 279 279 279 279 280 280 279 279 279
281 282 284 284 284 284 284 284 284 284 284 284 284 284 284 284 284 284 284 284 285 285 286 287 289 290 292 293 292 291 290 289 288 287 287 287 287 287 287 287 287 287 287 288 288 288 288 288 288 287 287 288 287 285 285 285 286 285 285 284 285 285 285 285 284 283 283 284 283 282 282 281 280 279 279 279 279 279 279 279 279 279 279 279 278
279 281 282 283 284 284 284 284 284 284 284 284 284 284 284 284 284 284 284 284 284 284 285 286 287 289 290 292 293 292 291 289 288 288 287 287 287 287 286 286 287 287 287 287 287 288 288 288 288 287 287 287 287 286 285 284 284 284 284 284 284 284 284 284 283 282 283 283 282 282 281 280 279 279 278 278 278 279 279 279 279 279 279 278 278
277 279 280 281 282 282 282 283 283 283 283 283 283 283 284 283 283 284 283 284 284 284 284 285 286 287 289 291 292 293 292 290 289 288 287 287 286 286 286 286 286 286 287 287 287 287 287 287 287 287 286 287 288 286 284 283 283 284 284 284 283 283 283 283 282 282 282 282 282 281 280 279 278 278 278 278 278 279 279 278 278 278 278 278 278
275 276 277 277 278 278 279 281 282 282 282 282 282 282 283 283 283 283 283 283 283 284 284 285 285 286 288 289 291 292 293 291 290 288 288 287 286 286 286 286 286 286 287 287 287 287 287 286 286 286 286 286 286 284 283 282 283 283 283 283 282 282 282 282 282 282 282 282 281 280 279 278 278 277 277 277 278 278 278 278 278 278 278 278 278
272 273 274 274 274 274 275 277 278 279 280 280 280 280 281 281 282 282 282 282 282 283 283 284 285 285 287 288 290 292 293 292 291 289 288 287 286 286 285 286 286 286 286 286 286 286 286 285 285 285 285 284 283 283 282 282 282 282 282 282 281 281 282 282 282 282 281 281 280 279 278 277 277 277 277 277 278 278 278 278 278 278 278 278 278
270 271 272 272 271 271 272 272 274 275 276 277 277 278 279 279 279 281 281 281 281 281 282 282 283 285 285 287 289 291 292 292 292 291 289 288 287 286 285 285 286 286 286 286 286 285 285 285 284 284 283 282 282 282 282 282 282 281 281 281 280 281 281 281 281 281 280 279 278 278 277 277 277 277 277 277 277 277 277 277 278 278 278 278 278
269 269 269 269 268 268 268 268 269 269 271 273 274 275 276 276 276 278 280 280 279 280 280 281 282 283 284 285 287 290 291 292 292 291 290 289 287 286 285 285 285 285 285 286 286 285 284 284 283 282 281 281 281 281 281 281 281 281 280 280 280 280 280 281 280 279 278 278 278 277 277 276 276 276 276 276 276 277 277 277 277 277 277 277 278
266 266 266 265 265 266 265 265 266 266 266 268 269 271 273 274 274 275 278 279 279 278 279 280 281 282 282 284 286 288 289 291 291 290 289 287 287 286 285 285 285 285 285 285 285 285 284 283 282 281 281 281 281 281 280 280 280 280 280 280 280 280 280 280 279 278 277 278 277 277 276 276 276 276 276 276 276 276 276 276 277 277 277 277 277
263 264 263 263 263 263 263 263 263 264 264 264 265 267 270 273 274 274 276 277 277 277 278 279 280 281 281 283 284 286 287 288 288 289 288 287 286 286 285 284 284 285 285 285 285 285 284 283 281 281 280 280 280 280 280 280 280 280 280 280 279 280 280 279 278 277 277 277 276 275 275 275 275 275 276 276 276 276 276 276 276 276 277 277 277
262 262 262 262 262 262 262 263 263 263 263 263 264 265 267 270 272 273 274 275 276 277 278 279 280 281 281 282 283 284 285 286 286 287 288 287 286 285 284 284 284 284 284 284 284 285 284 283 282 281 280 280 280 280 280 280 280 280 280 280 280 280 279 279 278 277 277 276 275 275 275 275 275 275 275 276 276 276 276 276 276 276 276 276 276
262 262 262 262 262 262 262 262 262 263 263 263 264 265 266 268 271 272 273 274 275 276 277 278 279 281 281 282 282 282 284 285 285 286 286 286 286 285 284 284 284 284 284 284 284 284 284 283 282 282 281 280 279 280 280 280 280 280 280 280 281 280 279 278 277 276 276 275 275 275 275 275 275 275 275 276 276 276 276 276 276 276 276 276 276
262 262 262 262 262 262 262 262 263 263 263 264 265 266 267 268 270 271 271 272 273 274 275 277 278 280 281 282 282 282 283 283 283 284 284 285 285 285 284 284 284 284 283 283 283 283 283 282 282 282 281 280 280 280 280 280 280 280 280 280 281 280 279 277 277 276 276 275 275 275 275 275 275 275 275 276 276 276 276 276 276 276 276 275 275
261 261 261 261 262 262 262 262 262 263 263 264 265 265 266 267 268 269 269 270 271 272 274 275 276 278 279 280 282 282 282 282 282 282 282 283 283 284 283 283 284 284 283 283 283 283 282 282 282 281 281 281 280 280 280 280 280 280 280 280 280 279 278 278 277 276 275 275 275 275 274 275 275 275 275 275 275 275 275 275 275 275 275 275 275
260 260 261 261 261 261 261 262 262 262 263 263 264 264 265 266 266 267 268 269 270 272 274 275 276 277 278 279 281 282 282 282 282 282 281 281 282 282 282 283 284 284 283 282 282 282 282 282 282 282 281 281 281 280 280 280 280 280 280 280 280 279 278 277 277 276 275 275 274 274 274 275 275 275 275 275 275 275 275 275 275 275 275 274 274
260 260 260 261 261 261 262 262 262 263 263 264 265 265 266 267 267 268 269 270 272 273 274 275 276 277 278 279 280 281 282 282 282 282 281 281 281 281 282 283 283 284 283 282 282 281 281 281 281 282 282 282 281 281 280 280 280 280 280 280 279 278 277 277 276 275 275 275 274 274 274 275 275 275 275 275 275 275 275 275 275 275 274 274 274
261 261 261 261 261 262 262 263 263 263 264 264 265 265 266 266 267 268 269 270 272 274 275 276 277 277 278 278 280 281 281 282 282 282 281 281 281 281 282 282 283 283 283 282 281 281 281 281 281 281 282 282 282 281 280 280 280 280 279 278 278 277 276 276 275 274 275 274 274 274 274 274 274 274 274 274 274 274 274 274 274 274 274 273 273
261 261 261 261 262 262 262 263 263 263 264 264 264 265 265 266 267 267 268 270 271 273 275 276 277 277 278 278 279 280 280 281 282 282 281 281 281 281 281 282 282 283 283 282 281 281 281 281 281 281 281 282 282 282 281 280 279 279 278 278 277 276 275 275 274 274 274 274 274 274 274 274 274 274 274 274 274 274 274 274 274 273 273 273 273
261 261 262 262 262 262 262 262 263 263 263 264 264 265 265 266 267 268 269 270 271 273 275 276 277 277 278 278 278 279 279 280 281 282 281 281 281 281 281 281 282 282 283 282 282 281 281 280 280 280 280 281 282 281 280 280 279 278 278 277 276 275 275 274 274 274 274 274 274 274 274 274 274 274 274 274 274 274 274 273 273 273 273 272 271
262 262 262 263 263 263 263 263 263 264 264 264 264 265 265 266 267 268 270 271 272 273 274 276 276 277 278 278 278 278 279 279 280 281 281 281 281 280 281 281 282 282 282 282 282 281 280 280 280 280 280 281 281 281 280 279 278 278 277 276 276 275 275 274 274 274 274 274 274 274 274 273 274 274 273 273 273 273 273 273 273 272 272 271 271
262 262 263 263 264 264 264 264 264 264 264 264 265 265 265 266 267 269 270 272 273 274 274 275 276 277 277 277 278 278 278 279 279 280 281 281 280 280 280 281 281 282 282 282 281 281 280 280 280 280 280 280 280 280 279 278 278 277 276 276 275 275 274 274 274 274 274 274 274 273 273 273 273 273 273 273 273 273 273 272 272 272 271 271 270
263 263 263 264 264 264 264 265 265 265 265 265 266 266 266 267 268 269 270 271 273 274 275 275 276 276 277 277 277 278 278 279 279 280 280 280 280 280 280 281 281 281 281 281 281 281 280 280 280 280 280 280 280 279 279 278 277 276 276 275 275 274 274 274 274 274 274 273 273 273 273 273 273 273 273 273 272 272 272 272 272 271 271 270 269
263 264 264 265 265 265 265 266 266 266 266 267 267 267 267 268 269 270 270 271 272 274 275 275 276 276 276 276 277 277 278 279 279 279 280 280 280 280 280 280 281 281 281 280 280 280 280 280 280 280 279 279 279 278 277 277 276 276 275 275 274 274 274 274 273 273 273 273 273 273 273 273 273 273 272 272 272 272 272 272 271 271 270 269 268
264 264 265 265 266 266 266 267 267 267 268 268 268 268 269 269 270 271 271 272 273 273 274 275 275 275 276 276 276 277 277 278 279 279 280 280 280 280 280 280 280 280 280 280 280 280 280 280 280 279 279 278 278 277 276 276 275 274 274 274 274 273 273 273 273 273 273 273 273 273 273 273 272 272 272 272 272 272 271 271 270 270 269 269 268
264 265 265 266 266 266 267 267 268 268 269 269 269 270 270 271 271 272 272 272 273 273 274 274 275 275 275 276 276 276 277 278 279 279 279 279 279 279 279 280 280 280 279 279 279 279 280 280 279 279 278 278 277 276 275 274 274 273 273 273 273 273 273 273 273 273 272 272 272 272 272 272 272 272 272 272 271 271 270 270 270 270 269 268 267
265 265 265 266 266 267 267 268 268 269 269 270 270 271 271 272 272 272 272 273 273 273 274 274 275 275 275 276 276 276 277 278 278 279 279 279 279 279 279 279 279 279 279 279 279 279 279 279 278 278 277 276 275 274 274 273 273 273 273 272 272 272 272 272 272 272 272 272 272 272 272 272 272 272 271 271 271 270 269 269 270 269 268 267 267
265 265 265 266 267 267 268 268 269 269 270 270 270 271 271 272 272 272 273 273 273 274 274 274 275 275 275 276 276 276 277 277 278 278 279 279 278 278 279 278 278 278 278 278 278 278 278 278 277 276 275 275 274 273 273 273 273 272 272 272 272 272 272 272 272 272 272 272 272 272 272 272 272 271 271 271 270 269 269 269 269 268 267 267 267
265 266 266 266 267 267 268 268 269 269 269 270 270 271 271 271 272 272 272 273 273 273 274 274 275 275 275 276 276 276 277 277 278 278 278 278 278 278 277 277 277 278 278 277 277 277 277 276 275 275 274 273 273 273 272 272 272 272 272 272 272 272 272 272 272 272 272 272 272 272 272 272 271 271 270 270 269 269 269 269 268 267 267 267 267
266 266 266 266 267 267 267 268 268 269 269 269 270 270 271 271 272 272 272 273 273 273 274 274 274 275 275 276 276 276 276 277 277 278 278 278 277 276 276 276 276 276 276 276 276 275 275 274 273 273 273 272 272 272 272 272 272 272 272 272 272 272 272 271 271 271 271 271 271 271 271 271 271 270 270 269 269 268 268 267 267 266 266 266 266
267 267 267 267 267 267 267 268 268 268 269 269 270 270 270 271 271 271 272 272 272 273 273 274 274 274 275 275 276 276 276 276 276 276 276 276 276 275 275 276 276 276 275 275 274 273 273 272 272 272 272 272 272 272 272 272 272 271 271 271 271 271 271 271 271 271 271 271 271 271 271 271 270 270 269 268 268 267 267 266 266 266 266 266 266
Wind_Speed
29 29 29 29 29 27 25 23 23 24 26 29 31 32 33 35 36 37 37 38 40 41 43 43 43 42 41 41 41 41 41 43 45 48 51 52 53 53 54 54 54 54 53 52 51 49 49 48 46 43 40 38 35 32 29 27 25 23 21 20 19 19 18 17 17 18 18 17 16 14 13 12 11 10 10 11 12 13 14 16 18 20 21 20 21
30 31 30 30 30 30 29 28 26 25 25 26 28 30 31 34 36 38 39 40 40 41 42 43 44 44 44 44 43 43 42 43 44 46 50 52 54 55 56 56 56 56 55 55 53 52 51 50 48 45 42 39 37 34 31 29 27 25 23 21 20 19 19 18 17 18 19 18 16 15 14 13 13 12 12 12 13 15 16 18 20 22 22 21 20
29 30 30 31 31 32 32 30 29 28 27 28 28 28 28 30 33 37 40 42 43 43 43 44 44 45 46 47 47 46 45 44 44 46 48 51 54 56 57 58 58 58 58 57 56 55 54 53 51 48 45 42 39 36 34 32 30 27 25 22 21 20 20 19 18 19 19 19 18 17 16 15 15 16 16 15 16 18 19 20 22 22 22 21 20
30 30 30 30 31 32 33 33 32 31 29 29 28 28 27 28 30 33 37 40 43 44 45 46 46 47 47 48 49 49 48 46 45 46 48 51 54 56 58 58 59 59 58 57 57 57 56 55 53 51 48 45 42 39 37 35 32 29 27 24 23 22 21 20 20 19 20 21 20 19 18 18 18 19 19 18 19 20 20 20 21 22 22 22 22
32 31 31 31 31 32 34 35 35 34 32 30 28 27 27 27 28 31 33 37 40 42 44 46 47 49 49 49 49 50 50 50 49 48 49 50 53 55 58 59 59 59 59 58 58 58 58 57 55 53 51 48 45 43 40 38 34 31 29 26 24 23 22 21 21 21 21 22 22 21 20 20 19 20 20 20 20 21 22 21 22 22 22 22 22
33 32 32 32 32 33 34 36 37 37 36 33 30 28 27 27 27 29 31 34 37 40 43 45 47 49 50 50 50 51 51 51 52 51 50 51 52 55 57 59 59 59 59 59 59 59 59 58 57 55 54 51 48 45 43 40 37 34 30 27 26 24 23 23 22 22 22 22 23 22 21 21 20 20 21 21 21 22 23 22 22 23 22 21 20
36 34 32 31 32 33 34 35 36 38 38 37 34 30 29 28 28 28 30 32 35 38 42 44 46 48 49 50 51 52 52 52 53 53 53 53 54 55 57 58 59 60 60 60 60 60 60 60 59 57 56 53 50 48 45 42 39 35 31 29 28 26 25 24 24 24 24 24 24 23 22 21 20 19 21 22 22 22 24 23 22 21 21 19 17
37 36 34 32 32 32 33 34 35 35 36 37 36 34 31 29 29 29 30 31 34 36 39 42 45 47 48 49 51 52 54 54 55 55 55 55 56 57 58 59 59 59 60 61 61 62 62 62 61 59 57 54 51 49 46 43 40 36 34 31 30 28 27 27 26 26 26 25 24 23 22 22 20 19 20 21 21 22 23 22 20 18 19 17 15
39 38 37 35 34 33 32 32 33 34 35 36 36 36 35 32 30 30 31 32 33 34 37 40 43 46 48 49 50 52 55 56 57 57 57 57 57 57 58 60 60 60 60 61 62 63 64 63 62 60 57 54 52 49 46 43 41 39 36 35 33 31 29 29 28 28 28 27 26 24 23 22 21 19 19 21 22 22 21 20 18 17 17 15 13
40 40 39 38 37 36 35 33 33 34 35 35 36 36 36 35 33 31 31 32 33 33 34 37 41 44 47 49 50 53 55 57 58 58 58 58 57 56 57 59 61 62 62 63 64 65 65 64 63 61 58 55 53 50 46 44 42 39 37 35 34 33 31 30 29 29 29 28 26 24 24 22 20 20 20 21 21 20 19 17 15 15 15 15 14
40 41 41 40 38 38 38 37 36 35 35 35 36 36 36 36 36 34 32 31 33 33 33 35 39 42 45 48 50 53 55 57 57 57 58 58 58 58 57 57 60 63 64 65 65 65 65 65 65 63 60 57 55 52 48 45 43 40 38 35 34 33 32 31 30 30 30 28 26 25 25 23 21 20 21 21 20 19 17 15 14 14 15 15 15
40 41 42 42 41 40 39 39 39 37 36 36 36 37 37 37 36 36 35 33 32 32 33 35 36 39 43 46 49 52 55 56 56 57 58 58 58 58 58 58 59 61 64 66 66 65 65 66 65 64 62 60 57 53 50 47 44 42 40 38 36 35 34 32 31 30 29 28 27 27 25 23 22 22 21 21 20 18 16 15 14 15 15 14 15
40 41 42 42 42 42 41 41 41 40 39 38 38 38 38 37 37 36 36 36 34 32 33 33 34 37 41 45 48 51 53 55 56 56 57 57 57 58 58 59 59 60 62 65 66 67 66 66 66 65 64 61 58 55 52 49 46 43 41 39 38 37 35 33 32 31 30 29 28 27 25 24 23 23 21 20 19 18 16 15 15 15 14 14 15
40 41 41 42 42 42 42 43 43 42 41 41 40 40 39 39 38 37 36 35 35 34 33 32 33 34 38 43 47 50 52 54 55 56 56 56 56 56 57 58 59 60 60 63 65 66 66 66 66 65 64 62 60 58 54 51 48 46 44 42 41 38 36 34 33 33 32 31 29 27 25 25 24 22 21 20 19 18 18 16 15 15 15 14 15
40 41 41 42 42 42 43 43 44 44 44 43 43 42 41 40 39 38 37 36 34 34 34 33 33 33 35 39 44 48 51 53 53 55 55 55 55 55 55 56 59 60 60 62 63 64 64 64 63 63 63 62 61 59 56 53 51 48 46 44 42 39 37 36 35 35 33 32 29 27 26 26 24 22 20 20 19 19 18 16 15 15 15 15 15
40 41 42 43 43 43 43 45 45 46 46 46 46 45 44 43 41 40 39 37 35 34 33 32 32 32 32 35 41 46 49 51 52 53 54 54 53 53 54 55 58 60 61 62 63 62 61 61 61 60 60 60 60 59 56 53 51 49 47 44 41 39 38 37 37 35 33 31 28 27 26 25 23 22 21 19 19 19 16 14 14 15 15 15 15
42 43 44 45 45 44 44 46 47 47 47 47 47 47 46 45 43 41 40 39 37 35 33 32 31 31 31 33 38 42 46 48 50 51 52 53 53 52 53 55 57 60 61 62 63 62 61 59 59 59 59 59 59 57 56 53 51 50 47 44 41 40 40 39 37 35 32 30 29 28 26 24 23 22 21 19 18 17 14 13 14 15 16 16 17
43 44 45 45 46 46 46 46 47 49 49 49 49 48 48 48 46 43 42 42 40 37 35 34 32 31 31 32 34 38 42 44 47 50 51 51 52 52 52 54 57 60 61 62 62 62 60 58 57 56 56 56 56 56 56 55 53 52 48 44 43 44 42 39 37 34 33 32 30 28 25 24 24 23 20 18 17 16 14 14 15 16 16 16 18
43 45 46 46 46 46 47 47 48 49 51 51 51 51 50 49 48 46 44 43 42 40 38 36 34 32 31 32 33 35 38 41 44 47 49 49 50 50 51 53 57 59 60 61 62 60 59 57 55 54 53 52 52 54 55 55 54 52 47 45 46 45 41 37 36 36 35 34 31 28 27 26 25 22 19 17 17 16 16 16 16 15 16 16 17
45 46 47 48 47 47 47 47 49 50 52 53 53 53 53 52 50 49 47 45 44 42 40 38 37 34 31 31 32 33 36 39 41 44 47 47 48 48 50 53 56 57 58 59 60 59 58 56 55 53 51 50 51 52 54 55 53 50 48 48 48 43 38 36 37 36 35 32 30 28 27 25 23 20 19 18 18 17 16 16 15 15 16 15 16
50 50 50 50 50 50 48 48 50 51 53 55 55 55 55 54 54 52 50 48 46 45 43 40 39 37 34 31 31 32 34 36 38 41 43 46 46 46 50 53 54 55 56 57 58 58 57 56 55 53 51 50 50 51 53 53 51 49 49 48 43 37 36 37 37 35 34 32 30 29 27 24 22 21 20 20 18 17 16 15 15 15 16 16 16
52 53 54 54 54 54 53 51 51 52 54 56 57 58 57 56 56 55 53 50 48 47 45 42 40 40 37 34 32 31 31 33 37 38 40 43 45 45 48 51 52 53 54 55 57 56 56 55 54 52 50 49 48 50 52 52 51 48 47 43 38 36 37 37 36 36 35 33 31 29 26 24 23 22 22 21 19 17 15 14 15 15 16 16 16
55 56 57 57 58 58 58 57 56 55 55 56 58 60 59 59 59 58 55 53 51 49 46 44 42 41 40 38 35 33 31 31 34 36 37 39 42 43 45 48 49 50 53 54 55 54 53 53 51 49 48 46 47 49 51 50 49 47 44 41 38 38 38 37 36 37 36 34 32 29 26 25 24 24 22 20 17 16 14 14 14 15 16 16 16
57 59 59 60 60 60 61 61 61 59 58 57 58 60 61 61 60 59 57 55 53 51 48 45 43 42 42 41 38 35 33 31 32 33 35 36 39 40 43 45 47 47 49 51 51 51 50 48 46 46 45 44 45 47 47 48 48 46 43 40 39 39 40 40 39 38 37 34 31 29 27 26 25 23 21 18 16 15 14 14 14 14 15 16 16
60 62 63 63 62 62 63 64 64 63 62 60 59 59 61 61 61 61 58 56 54 52 50 47 45 43 42 42 40 37 35 33 32 32 32 34 37 39 40 44 46 45 44 46 47 46 44 42 41 43 43 42 43 44 44 44 46 45 43 41 41 43 44 42 40 39 37 33 30 28 27 25 24 22 20 17 16 16 15 14 14 14 15 17 16
61 63 64 65 64 64 64 65 66 66 65 63 61 60 59 60 61 60 58 56 53 52 50 48 46 45 43 42 41 39 37 35 34 33 31 32 36 37 39 43 45 44 42 42 42 41 40 39 38 40 41 42 42 44 44 42 41 42 42 42 44 45 44 41 40 39 35 30 28 27 26 24 23 21 19 17 16 16 15 14 14 14 15 17 17
60 63 64 65 64 63 63 64 65 65 65 63 61 60 58 56 56 57 57 55 52 50 49 48 47 46 45 43 41 40 39 37 35 35 33 32 34 36 38 42 44 43 42 40 39 39 39 37 36 37 39 40 41 43 44 42 38 37 39 42 44 43 41 39 38 35 30 27 27 26 25 24 22 20 18 17 16 16 16 14 14 14 15 17 18
60 63 64 63 62 61 60 60 60 61 62 61 59 58 56 53 52 54 54 52 49 48 47 46 46 46 45 43 42 41 40 39 37 36 34 32 33 35 38 43 43 42 43 42 40 38 37 36 35 35 37 39 40 42 44 43 41 38 38 40 41 39 37 36 33 28 26 26 27 26 25 23 21 19 17 16 15 16 15 14 13 14 15 16 18
60 61 60 58 57 55 53 53 52 52 54 55 54 54 53 49 47 50 52 50 47 46 46 45 46 45 43 43 43 43 43 40 36 35 34 33 33 35 39 45 46 43 42 42 39 38 36 36 37 38 40 41 41 43 44 44 44 41 39 38 38 37 37 34 30 28 28 29 28 26 24 22 20 18 16 15 15 15 14 12 13 13 14 16 17
56 57 54 52 51 50 48 48 47 47 48 49 50 52 53 50 46 46 50 51 46 43 43 44 44 43 42 43 43 43 43 40 36 34 34 33 32 33 37 44 47 46 44 40 37 37 38 38 39 41 42 44 45 45 46 46 45 43 41 39 37 37 35 32 29 28 28 28 26 24 23 21 19 17 16 15 14 13 12 11 12 13 14 15 16
52 53 50 48 47 47 47 47 45 44 46 48 49 49 51 52 49 45 45 46 44 42 42 42 42 39 38 41 43 43 43 41 39 37 35 33 31 32 34 40 45 47 46 42 40 40 40 40 40 41 43 46 47 46 47 46 45 45 44 40 38 37 35 32 30 29 28 27 25 23 21 19 18 17 15 14 13 12 11 11 11 12 13 15 16
49 51 50 48 47 46 46 45 42 40 41 44 44 42 41 43 45 43 38 37 37 38 37 38 38 37 36 37 39 41 42 42 40 39 37 33 31 31 32 37 41 44 45 45 44 44 43 42 42 43 45 47 47 47 47 46 47 47 44 40 39 37 34 32 31 30 29 26 24 22 20 18 17 16 15 14 12 11 10 10 11 12 13 14 16
48 50 49 49 48 47 45 42 39 37 37 38 39 37 33 32 34 36 33 30 29 30 32 33 34 35 35 35 35 36 39 40 39 38 37 34 31 29 29 35 39 41 44 47 47 46 46 45 44 45 46 47 47 47 47 46 46 45 42 40 38 36 34 33 32 30 28 25 23 21 19 18 17 16 14 13 11 10 9 9 10 11 12 14 16
47 48 48 47 47 46 42 40 39 38 37 35 34 33 32 32 32 33 33 32 30 29 29 30 30 31 33 34 33 32 33 36 37 37 35 34 31 27 26 32 37 39 43 48 49 48 47 47 46 46 47 47 48 48 48 46 45 44 42 41 39 36 34 34 33 30 28 26 23 21 20 18 17 15 14 12 11 10 9 9 10 11 12 15 17
46 47 46 45 44 44 43 41 41 40 39 38 37 38 39 40 41 42 42 41 40 37 34 31 30 28 28 31 32 32 31 32 34 34 31 30 29 25 23 31 39 41 43 47 49 48 48 48 47 46 47 47 48 49 48 47 46 45 43 42 39 36 35 35 34 31 28 25 22 21 19 18 16 15 13 12 10 9 9 9 10 11 13 15 18
44 44 44 43 43 43 44 43 43 42 42 42 42 41 40 39 39 39 38 37 38 37 35 33 31 28 26 26 28 30 30 29 31 32 29 26 26 25 27 35 42 45 45 47 48 48 48 48 47 46 45 44 45 47 48 47 47 46 42 40 38 37 37 35 33 30 26 23 21 20 18 17 16 14 13 11 10 9 9 9 10 12 14 16 18
41 41 41 41 40 40 40 40 39 38 36 35 35 35 34 33 31 30 31 31 32 32 32 32 30 28 28 27 24 26 29 28 28 30 28 25 24 27 31 37 43 46 46 47 47 47 47 47 46 45 44 43 44 46 47 48 47 43 40 38 38 38 36 33 29 27 24 22 21 20 18 16 15 14 12 11 10 9 9 10 11 13 14 16 19
40 39 38 37 36 37 37 37 36 34 33 33 34 34 35 34 33 33 33 33 31 31 31 31 30 30 31 29 25 23 25 27 28 29 29 27 28 30 34 38 41 43 45 46 47 47 46 46 45 45 44 43 42 43 45 45 43 40 39 38 37 35 33 30 28 26 24 22 21 19 17 16 15 13 12 11 10 10 10 11 12 15 16 17 18
39 38 36 34 33 34 34 33 32 32 32 33 34 34 34 34 34 34 34 33 33 32 31 31 31 31 31 29 27 24 24 27 31 33 33 32 31 32 35 38 40 42 44 47 48 46 45 45 45 45 43 41 40 40 41 40 39 39 39 39 38 35 33 30 28 26 24 22 20 19 17 15 14 13 12 10 10 11 11 12 13 15 17 18 18
37 37 35 34 33 33 33 31 30 30 31 31 31 31 31 30 30 30 30 30 30 31 30 31 32 32 30 29 28 26 25 28 33 35 36 34 33 33 35 38 40 42 44 46 47 46 45 45 45 44 41 39 37 37 37 37 38 40 39 38 37 36 33 30 27 25 23 21 20 18 16 15 14 13 11 11 11 12 13 14 15 16 18 18 18
35 35 35 33 33 33 33 32 32 31 31 31 30 30 31 30 29 29 29 29 29 29 30 31 31 30 29 28 27 26 26 28 32 35 36 36 34 34 35 37 40 42 43 44 45 46 46 46 43 40 38 37 37 36 35 36 38 39 38 37 36 33 31 28 26 24 22 21 19 17 15 14 13 12 11 12 12 13 14 15 16 17 18 18 18
33 33 34 33 33 33 33 33 32 32 31 30 29 29 29 29 26 26 27 28 29 29 29 29 29 28 27 26 24 23 25 27 30 33 36 36 35 34 35 37 39 41 43 43 44 45 46 43 39 37 36 36 35 34 34 37 38 38 37 36 34 31 28 27 25 23 22 20 18 16 15 14 13 12 12 12 13 14 14 15 16 17 18 18 18
32 32 32 32 32 32 32 31 31 31 30 30 29 27 26 25 25 25 25 26 27 27 27 27 27 26 25 23 21 21 24 27 29 32 34 35 35 35 36 37 38 38 39 41 42 42 41 38 36 34 33 33 32 32 34 36 37 37 36 34 31 28 27 25 23 22 20 18 17 15 14 14 13 12 12 13 14 15 15 16 17 18 18 18 19
31 30 29 29 29 29 29 29 29 29 29 29 28 26 25 25 25 25 24 24 24 24 25 25 24 23 22 21 18 19 23 26 29 30 32 34 35 35 35 36 36 35 35 37 38 37 36 35 34 32 31 30 30 31 33 35 35 35 33 31 28 26 25 23 22 20 18 17 16 15 14 14 13 12 12 13 14 15 16 17 18 18 18 19 20
28 28 27 27 27 27 26 26 27 26 26 26 25 25 23 23 23 22 21 20 20 20 21 21 20 19 19 17 16 17 21 24 26 28 30 31 32 33 34 34 34 32 32 32 33 33 32 32 30 28 28 29 29 31 33 33 32 30 27 25 24 23 22 21 19 18 16 16 15 14 13 13 12 12 13 13 14 16 16 17 18 19 18 19 21
26 26 26 26 26 26 25 24 23 22 21 21 21 20 19 18 18 18 17 17 17 17 18 17 16 15 15 14 14 16 19 21 23 25 28 29 30 31 32 32 31 30 29 28 29 29 29 28 26 25 26 28 30 32 33 32 29 27 24 23 22 21 20 19 17 16 15 15 14 13 12 12 12 13 13 14 14 16 16 17 18 19 19 20 23
25 25 25 24 24 24 23 22 20 19 18 17 16 16 15 14 14 13 12 12 12 13 13 12 11 11 12 13 14 15 17 19 20 23 25 26 27 28 29 29 29 27 26 25 27 27 26 24 23 24 27 30 33 34 33 30 27 25 23 22 21 19 18 16 15 14 14 13 12 12 12 12 12 12 13 14 14 15 16 18 18 18 19 22 26
24 24 24 23 22 22 22 21 20 18 16 15 14 13 12 11 10 9 8 8 8 8 8 8 8 9 10 12 13 15 17 18 18 20 22 23 23 24 26 26 25 24 24 25 25 24 23 22 23 26 30 33 34 32 29 26 24 22 21 19 18 16 15 14 13 12 12 11 11 11 11 12 12 13 14 14 14 16 17 18 17 18 20 24 27
24 24 23 23 22 22 21 21 20 18 16 15 14 12 10 9 8 6 6 5 5 5 5 6 6 7 9 11 12 13 15 16 17 18 20 20 20 21 22 23 23 23 23 24 23 22 22 24 27 30 33 33 30 27 24 22 21 20 18 17 16 14 13 12 12 11 10 10 10 10 11 12 12 13 14 14 15 16 17 16 17 19 23 27 28
24 24 23 23 23 22 21 20 19 18 17 15 14 12 10 9 8 6 4 3 3 3 3 4 5 6 8 9 11 12 13 14 15 16 17 17 18 20 22 23 23 23 24 24 24 25 27 30 31 31 30 28 25 23 22 20 19 18 16 15 14 12 11 10 10 9 9 9 9 10 11 12 13 14 14 14 15 16 16 15 18 22 26 27 27
26 25 25 24 23 23 22 21 20 20 19 17 16 14 12 10 9 7 5 3 1 0 2 3 4 5 7 8 9 9 10 12 13 14 16 17 19 22 24 24 25 26 26 28 29 31 32 32 31 29 26 24 22 21 20 18 17 16 14 13 12 10 9 8 8 8 8 9 10 11 12 13 13 14 14 14 15 15 14 16 20 24 26 26 24
Wind_Direction
1 360 357 353 348 342 334 322 308 298 289 284 282 281 281 280 278 275 271 267 265 263 261 260 258 256 253 251 248 246 244 241 239 236 234 232 231 230 230 229 228 227 227 227 228 228 229 230 230 230 231 231 231 231 230 229 228 230 234 237 241 243 245 247 248 246 243 243 249 256 261 268 275 279 286 296 303 309 315 318 318 317 319 323 324
358 357 355 353 349 345 340 333 324 312 301 292 285 281 278 278 278 277 275 272 268 265 262 261 260 259 257 255 253 250 247 245 242 239 237 234 232 230 230 229 228 227 227 227 228 228 229 230 230 229 229 230 230 231 230 229 229 230 233 237 240 242 243 244 246 246 247 247 249 254 261 268 272 273 277 284 289 296 302 306 308 310 313 318 320
357 354 352 352 350 347 343 338 332 323 314 307 300 293 287 281 276 274 273 273 271 268 265 262 260 259 258 257 255 252 250 248 246 243 240 238 235 232 231 230 228 228 227 227 228 228 228 229 229 228 228 228 229 229 229 229 230 231 233 235 238 240 242 242 244 245 245 245 245 248 254 261 265 268 273 279 283 288 294 300 304 307 312 317 319
357 353 350 348 347 346 344 340 336 331 323 315 308 303 299 292 285 279 274 272 269 268 267 265 262 259 257 256 255 253 251 249 248 246 244 241 238 236 233 231 230 229 229 229 229 229 229 229 229 228 227 228 228 229 230 230 230 230 232 233 236 239 240 242 242 242 242 244 245 246 249 255 260 265 272 279 284 289 293 298 302 306 311 315 316
356 354 351 348 345 345 345 344 341 337 332 324 315 307 300 297 294 289 283 278 273 269 266 264 263 262 259 258 257 256 254 251 248 247 246 244 242 239 236 234 232 231 230 230 230 231 231 231 230 228 227 227 228 229 231 232 232 231 231 233 235 236 238 241 242 241 241 244 247 248 249 254 258 265 272 278 284 289 293 296 299 301 304 308 309
354 353 352 350 348 346 346 347 347 345 340 333 325 314 303 296 293 290 289 287 282 277 271 266 264 264 264 263 261 259 256 253 251 248 247 245 243 241 238 236 234 233 231 231 231 232 232 232 231 229 228 228 229 231 232 233 233 232 232 234 236 237 239 241 242 242 242 242 245 248 251 254 257 264 271 277 282 286 290 293 296 298 300 302 305
352 351 350 350 349 347 346 346 347 348 346 343 337 326 313 301 291 288 288 287 285 283 279 274 271 268 267 265 263 261 258 255 253 251 248 246 244 242 239 237 235 233 233 232 232 232 232 232 231 230 229 229 231 232 232 232 232 232 233 235 236 236 238 240 241 242 242 241 242 245 249 253 256 261 269 276 280 283 286 289 293 296 299 304 310
348 348 347 346 346 346 345 343 343 344 345 345 344 339 328 314 299 290 284 282 283 285 284 281 278 274 271 267 263 261 258 256 254 252 248 245 244 243 241 238 235 233 233 233 233 233 233 232 231 231 230 231 232 233 233 233 232 231 231 233 234 234 236 238 240 240 240 239 239 241 244 249 253 258 266 272 276 280 285 290 294 296 298 304 317
343 344 344 343 342 341 341 340 339 339 339 340 342 343 340 331 317 301 288 281 280 282 284 284 281 277 273 270 265 260 258 257 256 253 250 247 244 243 242 241 238 235 233 232 232 232 232 232 232 231 230 231 232 232 232 232 232 231 231 231 231 232 234 236 237 238 238 236 235 237 240 245 250 255 260 266 272 277 283 289 294 298 300 308 324
338 340 340 340 339 338 336 335 335 335 336 336 337 339 340 340 334 321 305 290 282 280 281 281 280 278 274 271 267 262 259 258 257 255 253 250 247 244 242 242 240 237 235 233 232 231 231 231 232 231 230 229 230 230 229 229 230 230 232 233 232 232 233 234 236 237 237 236 235 237 239 243 248 252 257 264 270 275 279 284 290 296 302 312 327
336 336 336 336 335 335 334 333 332 332 333 333 333 333 335 337 339 336 326 309 294 285 282 278 277 278 276 272 268 265 262 261 259 257 255 252 249 245 243 242 241 239 237 234 233 232 231 230 230 230 229 228 228 227 226 226 226 225 226 228 229 231 233 234 235 235 235 236 235 236 240 243 245 248 255 262 268 272 275 279 286 291 298 312 326
334 334 334 333 333 333 332 331 330 330 330 330 329 330 330 331 334 336 335 328 312 294 284 280 280 279 276 272 269 266 265 263 261 258 256 253 250 247 244 242 241 241 239 236 234 233 232 230 229 229 228 227 226 225 223 223 223 222 223 224 225 228 230 232 234 234 234 235 235 237 240 243 244 248 255 262 265 267 269 274 282 288 298 313 325
333 332 331 331 330 331 331 329 328 329 329 329 328 327 327 327 328 331 332 333 327 311 294 285 283 281 276 273 270 268 266 264 261 259 257 254 251 247 245 244 242 242 242 240 236 234 232 230 229 228 227 226 225 224 223 221 220 219 220 222 224 226 228 229 231 232 233 234 236 239 241 242 244 250 257 260 260 261 264 270 278 286 300 314 321
331 330 329 328 329 329 329 328 327 327 327 328 327 326 325 324 325 326 327 328 330 325 311 295 285 282 279 275 272 270 267 265 262 259 257 254 252 249 246 245 244 243 243 243 241 238 235 232 230 229 227 225 224 223 222 220 220 219 219 221 223 224 225 227 229 230 230 231 233 237 240 243 247 252 255 256 257 258 261 268 276 286 299 311 317
326 327 325 325 326 327 328 328 327 327 327 327 327 327 326 323 322 323 323 323 326 327 322 308 293 285 281 277 273 270 268 265 261 259 257 255 252 250 247 245 245 244 244 244 243 242 239 237 234 232 230 227 225 223 222 221 220 220 221 222 223 223 224 227 229 229 229 229 232 234 238 243 248 250 251 251 252 256 260 268 279 288 298 307 314
321 322 321 322 323 324 326 327 326 327 327 326 326 326 325 323 322 321 320 319 320 322 323 318 305 292 284 280 275 272 269 265 262 259 257 255 252 249 247 245 245 244 243 243 242 241 240 239 237 235 233 231 228 224 222 222 222 222 223 223 223 224 225 227 228 228 228 229 230 231 235 243 248 248 246 245 247 254 262 272 282 289 295 301 306
317 317 317 318 319 321 323 323 324 324 324 325 325 324 324 322 321 320 318 316 316 318 319 318 311 299 289 281 277 275 271 267 263 260 257 254 251 248 246 245 244 243 242 242 241 241 239 238 237 235 233 231 228 225 223 222 223 224 223 222 223 224 225 225 225 225 226 228 229 231 236 242 245 243 240 239 245 254 261 269 276 283 289 295 301
313 313 313 314 315 317 319 319 320 320 320 321 321 322 322 321 319 318 316 313 313 314 314 314 312 305 295 286 280 277 274 270 265 261 257 254 251 248 245 244 243 242 241 241 240 239 238 237 236 235 233 231 228 225 223 223 224 224 223 223 225 225 223 222 222 222 223 225 227 229 233 236 236 236 232 233 242 251 255 261 268 276 284 293 301
309 309 309 310 311 313 314 316 316 316 315 316 317 317 317 318 317 316 313 311 310 310 310 310 310 308 301 292 284 279 276 272 266 260 257 254 251 249 245 242 242 241 240 239 239 238 237 236 235 234 232 230 227 224 223 224 224 224 225 227 226 224 221 221 221 221 222 224 225 226 228 230 230 228 225 228 236 244 251 259 266 274 283 291 299
306 305 305 306 307 308 310 311 312 312 311 312 312 313 313 313 314 314 312 309 307 306 306 306 305 306 304 297 289 281 276 273 268 262 257 254 252 249 245 242 241 240 238 237 237 236 235 234 233 232 230 227 225 223 224 224 225 227 229 229 226 223 221 220 221 222 224 225 226 227 229 228 223 218 218 223 230 237 246 256 265 275 283 289 295
304 303 303 303 304 305 306 307 308 308 308 309 309 309 309 309 309 310 310 308 305 303 303 302 301 302 301 297 291 284 278 274 270 265 259 255 252 248 244 243 241 238 237 237 237 236 235 233 232 229 226 224 222 221 222 224 226 229 230 229 226 223 222 221 221 222 223 223 225 226 226 221 215 212 215 220 226 232 241 253 265 274 282 288 293
301 301 301 302 302 302 302 303 304 304 304 306 306 305 305 306 305 306 306 306 304 301 299 298 298 298 298 295 291 286 281 275 270 266 262 257 252 247 244 244 242 239 237 238 238 237 236 234 233 229 226 224 220 218 221 224 227 227 226 225 224 222 222 222 221 221 220 221 224 222 218 214 211 212 215 217 223 229 238 251 262 272 280 286 291
299 299 299 299 299 300 300 300 300 300 301 302 302 302 302 302 302 302 301 302 302 299 296 294 293 293 293 293 290 287 282 277 270 266 263 259 254 247 242 243 242 240 239 239 240 240 239 237 235 232 230 226 221 218 220 224 225 223 221 221 220 221 222 220 219 219 219 220 220 215 211 210 210 211 214 217 222 228 237 249 259 268 277 282 289
298 298 297 297 296 297 297 297 297 297 298 298 298 298 299 298 298 298 297 298 298 297 294 291 288 288 289 290 289 287 283 278 272 267 263 259 255 248 242 240 241 240 240 241 242 242 241 239 237 234 230 227 223 221 220 223 224 221 219 219 219 220 221 219 217 219 220 217 214 210 208 209 209 211 214 217 222 230 238 248 257 265 272 277 284
297 296 296 295 295 295 295 295 295 295 295 295 294 294 295 295 294 294 294 293 293 293 293 289 284 283 284 284 285 287 285 280 274 268 264 258 254 247 239 237 239 240 239 241 242 242 242 241 238 234 230 228 225 220 215 218 223 222 218 217 217 218 218 216 216 219 219 213 208 206 206 207 208 211 213 216 224 233 240 247 253 261 269 274 280
295 294 294 294 294 294 293 293 292 293 293 292 291 291 290 290 290 290 290 289 289 289 289 287 283 280 279 279 281 283 285 282 276 269 263 256 251 245 236 234 237 239 239 240 241 242 242 239 235 231 228 225 222 215 209 210 218 221 217 215 217 217 216 215 217 218 215 208 203 203 205 206 208 210 213 218 227 234 239 244 249 257 266 272 276
294 294 294 294 294 294 294 293 292 291 290 290 290 289 287 286 285 285 285 285 285 285 285 283 280 277 275 276 277 278 279 280 277 271 262 253 248 242 232 229 233 235 235 236 237 237 236 234 231 230 227 221 216 212 208 205 208 214 215 214 216 216 215 216 217 214 208 201 199 201 204 206 208 210 213 220 228 235 240 244 249 256 264 271 276
294 294 294 294 293 293 293 292 291 290 289 289 288 287 285 283 281 280 280 280 279 279 279 278 277 275 274 273 273 273 274 274 274 273 268 258 249 239 227 223 226 229 230 230 230 230 230 229 228 225 218 211 207 207 206 203 202 205 208 208 210 213 214 214 211 205 200 197 198 202 205 207 210 213 216 222 229 237 243 248 254 261 268 274 279
294 293 293 293 293 292 292 291 291 291 290 289 287 285 284 282 280 278 277 276 276 276 276 275 274 273 271 270 269 268 269 270 273 277 277 268 255 241 227 221 221 223 225 226 225 225 224 222 220 214 206 201 201 203 203 201 201 202 203 203 206 210 212 210 204 199 198 198 200 203 206 209 212 215 219 223 230 238 245 252 260 267 272 277 284
295 294 294 294 293 294 293 292 292 292 291 290 289 287 283 280 278 275 273 273 273 272 272 274 274 271 267 266 265 264 265 269 271 273 274 270 261 247 233 224 222 222 223 223 224 225 222 216 213 209 203 199 200 202 202 201 200 199 199 200 205 210 210 206 203 202 201 200 202 204 206 210 215 217 220 225 231 239 247 254 263 270 276 283 289
297 296 296 295 295 295 295 295 294 293 293 294 295 293 290 287 284 279 275 274 272 270 268 269 270 267 262 261 262 262 263 265 267 266 267 267 263 252 235 225 223 223 222 219 218 219 218 215 211 207 203 201 201 202 203 202 200 198 198 200 206 211 210 207 205 204 202 201 203 204 207 212 217 220 224 227 231 239 247 256 266 274 281 289 296
296 295 295 295 295 295 294 293 292 290 291 294 296 295 292 290 289 286 281 276 273 271 268 265 262 260 256 255 258 260 261 263 263 263 264 263 261 254 237 222 220 223 222 219 217 216 215 213 210 207 204 203 202 203 203 202 201 201 203 205 209 210 209 207 205 203 201 201 203 205 209 214 219 223 228 231 234 241 248 257 269 277 286 294 300
295 295 295 294 294 294 293 291 289 287 286 289 293 292 286 283 285 289 289 284 277 271 266 262 258 256 254 253 252 254 258 262 262 262 262 260 259 254 239 222 218 219 219 217 216 216 214 212 209 208 207 205 203 204 204 204 206 208 210 212 213 210 206 204 202 201 200 200 203 207 212 217 221 225 230 234 238 244 252 262 272 282 291 298 302
296 294 294 293 292 291 289 287 286 286 285 286 289 286 277 272 274 279 283 287 286 281 273 266 260 255 252 252 251 247 250 257 261 261 260 256 254 252 238 222 217 217 218 218 216 213 212 210 208 207 207 206 206 207 207 208 211 213 213 215 214 209 205 202 200 199 200 200 203 208 213 218 222 226 231 236 241 249 257 268 279 287 296 301 305
297 294 293 291 289 287 287 285 285 284 283 282 281 278 274 273 273 272 273 276 279 280 278 273 267 260 253 250 249 245 242 246 253 258 257 252 247 242 228 218 215 213 213 216 216 213 211 209 208 206 207 207 208 210 211 212 213 214 214 214 211 207 204 203 200 199 200 200 204 209 214 218 223 227 231 236 243 253 262 274 287 295 301 305 306
300 297 295 293 290 288 288 288 286 285 284 283 283 283 282 281 278 275 275 275 273 273 274 272 270 268 262 255 249 244 239 237 242 248 250 245 236 226 215 212 213 211 209 210 213 213 211 210 210 210 210 211 212 212 212 212 212 213 213 212 208 204 202 202 200 198 198 200 205 210 214 219 224 228 232 237 245 256 267 281 293 297 303 306 306
304 301 299 298 296 294 292 291 290 290 288 286 285 284 282 280 276 274 275 274 271 271 271 270 268 267 266 262 254 244 239 234 234 238 241 236 227 219 215 212 212 211 210 209 210 210 209 209 212 213 213 214 215 214 213 212 212 212 210 207 204 201 200 198 197 197 199 202 207 211 214 219 225 229 234 241 250 262 275 288 296 301 305 307 306
308 306 303 299 297 295 293 292 291 290 286 282 279 277 275 272 270 269 270 270 270 270 269 266 264 263 263 263 260 250 240 232 227 229 230 225 217 215 217 216 213 212 211 211 210 209 209 210 212 213 214 215 216 216 216 214 212 210 205 201 198 197 196 194 194 197 200 204 207 211 214 219 225 232 237 245 257 270 283 293 299 303 306 306 306
312 310 307 303 299 295 291 289 286 283 280 278 277 276 275 273 271 272 272 270 268 268 268 265 262 262 262 262 261 255 241 228 222 222 221 218 214 214 216 216 214 213 213 213 212 211 211 211 212 212 212 214 217 219 218 215 210 206 201 197 193 192 192 192 194 197 200 203 207 211 214 218 226 234 242 253 265 276 287 295 300 304 307 309 309
315 313 312 311 307 302 297 292 286 283 282 280 277 275 274 272 272 273 274 272 268 266 266 264 262 262 263 261 259 253 241 228 222 220 218 216 215 215 216 216 214 214 215 215 213 211 211 212 212 211 211 214 218 219 217 212 207 202 198 194 192 190 190 192 195 198 201 204 207 210 213 219 228 237 247 260 272 281 288 294 300 305 309 310 312
317 315 315 315 312 309 304 299 296 294 291 287 282 277 273 272 271 270 271 273 271 267 263 263 264 265 265 264 260 253 243 234 226 221 219 218 218 217 216 216 216 217 218 216 214 212 211 211 211 211 212 215 217 216 212 208 203 198 194 191 190 190 191 193 195 198 202 205 207 210 215 222 231 241 252 264 274 282 288 294 301 308 309 308 313
322 319 318 318 316 314 311 307 306 302 296 290 287 283 278 277 277 276 273 273 273 269 265 265 267 267 268 266 259 249 241 236 231 224 220 219 219 218 216 216 218 220 220 218 215 213 211 210 210 211 214 216 216 213 208 203 198 194 190 189 189 190 192 195 197 199 202 205 208 213 219 227 235 245 256 265 274 281 288 296 303 307 307 308 316
327 324 323 322 319 317 314 311 309 304 298 295 294 290 283 279 279 278 276 274 274 271 267 265 267 269 269 267 258 242 234 233 231 226 220 218 217 216 215 217 220 221 220 218 216 214 212 211 210 211 214 216 215 210 204 198 193 190 188 188 189 190 193 196 199 201 203 207 210 215 223 232 240 250 260 268 276 283 289 297 303 305 306 311 320
332 331 330 329 326 323 320 317 313 309 306 303 299 293 286 280 279 279 277 274 273 271 269 268 269 270 269 268 258 240 232 231 229 224 220 217 216 215 215 217 220 221 219 216 214 213 212 211 211 211 213 213 209 201 195 192 189 188 187 187 189 192 195 198 201 203 206 210 215 220 229 238 246 257 265 272 279 285 290 297 303 305 308 316 323
340 339 340 338 336 333 330 326 321 316 313 309 303 298 293 289 287 286 282 274 270 271 272 274 273 270 267 266 257 241 232 231 228 223 219 217 216 216 217 219 221 221 219 213 210 210 210 210 212 212 210 204 196 190 187 186 184 184 186 188 190 194 197 200 204 207 211 216 221 228 236 244 252 262 268 273 281 286 292 298 303 305 311 320 323
349 348 348 347 343 340 336 333 330 326 322 317 313 310 308 304 298 293 287 278 273 273 274 276 274 268 261 257 251 241 235 232 227 221 218 218 217 216 217 219 219 218 214 209 205 205 206 207 209 208 202 193 185 181 180 180 178 180 185 188 191 196 199 202 206 211 216 222 229 237 244 252 259 266 273 278 283 288 293 298 300 305 313 319 318
357 356 355 353 351 348 345 343 342 339 335 331 326 321 318 314 307 298 290 281 276 275 275 274 270 263 254 248 243 238 233 229 223 217 215 217 217 216 218 218 216 212 207 202 199 199 199 199 199 196 189 182 177 175 175 176 178 181 185 189 192 197 200 204 210 216 221 229 238 244 251 260 266 271 277 282 284 289 293 295 299 308 314 313 312
5 4 3 1 360 359 358 357 356 354 350 348 343 337 331 325 318 310 303 293 285 279 276 270 262 253 244 238 236 233 228 223 217 212 212 215 215 215 215 214 210 204 198 193 191 190 188 185 183 180 177 174 172 172 173 175 178 182 186 189 193 198 201 207 215 222 228 237 246 251 259 268 273 276 281 285 285 288 292 297 304 312 310 307 308
12 12 11 9 9 9 8 7 6 6 4 1 358 354 352 348 341 333 325 314 300 284 273 263 252 242 235 230 228 225 220 214 209 207 208 211 211 207 203 199 194 190 185 180 177 174 171 170 170 170 169 169 168 169 172 174 177 181 185 188 192 197 203 209 218 228 236 244 254 262 268 275 280 282 283 284 284 289 298 306 309 308 304 305 308
19 20 19 18 17 17 17 17 17 16 15 13 11 10 10 8 5 1 354 338 314 282 261 247 234 226 222 219 219 217 212 207 203 202 202 200 195 188 182 177 172 169 167 163 160 158 159 160 161 162 163 164 166 168 171 174 176 180 184 187 191 197 204 212 224 236 245 254 264 272 276 281 284 283 282 284 290 299 308 310 304 302 303 304 305
27 27 26 26 25 24 23 24 25 25 24 23 22 21 21 21 22 22 20 12 3 243 213 211 205 201 198 197 199 198 195 192 190 186 181 177 171 166 163 160 158 157 156 154 153 153 154 155 156 157 160 162 165 168 170 173 176 179 182 187 193 200 209 220 234 247 257 266 273 278 280 283 283 282 284 290 298 304 307 302 297 299 302 302 303